Kuchera_Ratio
14.7 14.5 14.9 14.2 15.0 14.7 14.7 14.6 14.1 13.8 13.9 14.0 14.1 14.0 13.8 14.1 14.1 14.1 13.6 14.2 13.7 14.2 14.1 14.1 13.6 12.8 12.5 12.2 11.5 10.6 10.0 9.3 7.6 5.4 5.5 6.6 6.5 6.5 6.0 6.2 6.7 6.7 6.4 6.5 5.9 6.0 6.1 5.9 5.3 4.6 3.7 5.4 5.0 4.7 5.2 5.5 3.9 3.2 3.2 3.4 1.2 0.4 0.0 1.5 2.1 2.3 2.2 1.7 0.6 0.0 0.0 0.7 0.9 0.5 0.6 1.3 2.0 3.5 3.1 4.4 4.6 4.5 5.1 5.0 4.2
14.7 14.5 15.0 14.6 14.9 14.8 14.9 15.0 14.3 14.4 14.6 14.8 15.0 14.4 14.2 14.2 13.8 13.9 14.7 14.3 14.0 14.6 14.6 14.3 14.1 13.8 13.4 13.0 12.5 12.2 11.7 11.0 10.2 9.7 7.4 5.7 6.1 5.9 6.4 6.5 6.9 6.9 6.5 7.1 6.4 6.3 6.5 7.0 6.4 5.6 4.1 5.4 5.0 5.0 4.7 5.1 5.4 5.0 4.0 3.5 2.5 3.2 2.2 1.7 2.4 3.0 3.4 2.9 2.2 1.3 1.2 2.6 3.4 2.4 1.9 2.0 1.6 2.6 4.9 5.7 6.0 5.9 6.0 6.0 5.9
15.0 15.1 14.7 14.7 14.9 15.0 15.1 14.9 14.8 15.1 15.3 15.3 15.6 15.0 14.8 14.6 14.2 14.9 14.8 14.8 14.4 14.5 14.8 14.8 14.7 14.5 14.1 13.6 13.3 13.1 12.6 12.3 11.8 11.9 11.5 9.2 6.7 5.7 5.8 6.4 6.9 7.4 7.5 7.2 6.5 6.2 6.9 7.2 6.7 6.0 5.3 6.2 5.7 5.0 4.4 4.9 4.8 5.3 5.0 3.9 3.9 1.7 3.1 3.1 3.0 4.2 5.0 4.2 3.4 3.1 2.8 3.8 4.3 3.9 2.8 2.6 2.3 2.9 4.9 5.9 5.9 6.3 6.8 6.7 6.8
14.9 14.9 14.7 14.7 14.9 15.3 15.5 15.2 15.3 15.4 15.7 15.7 15.7 15.3 15.5 15.5 14.6 15.2 15.2 14.8 15.4 14.9 14.9 14.9 15.0 15.0 15.0 14.6 14.0 13.7 13.5 13.1 12.7 12.6 12.5 11.9 10.5 7.5 5.9 6.0 6.3 6.7 7.2 7.2 6.9 6.9 7.4 7.6 7.2 6.4 6.2 7.0 6.5 5.7 4.9 4.8 4.9 5.0 5.3 4.7 4.3 4.0 2.7 4.5 3.4 4.6 6.1 5.9 5.1 4.4 3.3 3.3 4.6 4.5 3.6 4.3 5.2 5.5 5.2 6.3 6.3 6.6 7.1 7.3 7.5
15.2 14.9 15.3 15.3 15.0 15.2 15.6 15.4 15.5 15.6 16.1 15.9 16.0 15.7 16.1 16.1 14.9 15.8 15.5 15.7 15.6 15.6 15.7 15.4 15.5 15.6 15.7 15.4 14.7 14.3 14.2 13.9 13.8 13.4 12.9 12.4 12.2 11.4 8.0 6.7 6.7 6.5 6.4 6.5 6.9 7.1 7.2 7.7 7.0 6.8 7.0 8.0 7.7 6.8 5.9 6.4 5.7 5.7 6.4 5.6 5.6 5.2 5.2 5.5 5.6 4.6 7.3 7.3 6.4 5.8 5.3 4.4 4.8 5.1 4.7 5.9 8.0 8.6 6.3 8.2 7.8 7.6 7.8 8.1 8.4
15.2 15.2 15.5 15.7 15.5 15.7 15.8 15.4 15.4 16.1 16.2 16.2 16.1 16.3 16.4 16.5 16.5 16.3 15.7 16.4 16.3 16.3 16.5 16.4 16.2 16.4 16.1 15.9 15.2 14.7 14.4 14.3 14.3 13.9 13.4 13.0 12.7 12.5 12.0 8.9 7.5 7.9 8.0 7.5 6.8 6.5 7.1 7.2 6.9 6.9 7.8 8.7 8.5 7.9 7.8 8.0 7.3 7.7 7.9 7.4 7.5 7.1 7.3 7.7 6.9 7.7 7.8 7.9 6.8 6.6 7.5 7.2 6.7 7.0 6.5 6.0 7.3 9.3 10.4 10.8 10.3 9.6 9.4 9.6 9.7
15.2 15.6 15.6 15.9 16.1 16.2 15.8 15.4 15.7 16.4 16.6 16.4 16.2 17.3 17.6 17.4 17.7 17.7 16.4 17.8 17.9 17.9 17.5 17.4 17.1 16.8 16.8 16.4 16.1 15.6 15.2 15.0 14.8 14.4 13.9 13.3 13.1 13.2 12.9 12.4 10.7 8.9 8.2 8.2 8.4 8.5 8.2 7.7 7.6 7.5 8.4 8.3 8.4 8.8 9.2 9.2 8.9 9.6 9.0 9.5 10.2 10.1 10.0 10.4 9.8 9.3 9.0 9.1 8.6 8.0 8.6 9.1 8.8 8.7 8.3 7.7 8.1 8.9 10.1 12.0 12.7 12.4 11.8 11.4 10.9
15.6 15.8 16.1 16.6 17.1 16.7 15.9 15.7 16.3 16.7 17.0 16.7 17.2 17.8 18.4 18.7 18.8 18.6 16.9 19.5 19.0 18.7 18.6 18.4 18.1 17.8 17.8 17.4 16.5 16.0 16.1 15.9 15.7 15.1 14.4 13.9 13.5 13.4 13.3 13.2 12.8 12.1 10.6 9.4 8.9 8.9 9.2 9.7 9.7 9.3 8.9 8.5 8.4 8.9 9.0 9.7 9.7 10.7 11.3 11.2 11.3 11.1 11.0 10.5 10.2 10.2 10.3 10.8 11.1 10.3 9.8 10.4 11.0 10.8 10.2 10.7 12.0 12.1 11.4 11.7 12.4 12.5 12.5 12.5 12.2
16.5 16.5 16.8 17.3 17.4 16.7 16.3 16.2 16.4 17.1 17.2 17.9 18.6 18.7 19.1 19.3 19.4 19.6 20.3 19.6 19.3 19.3 18.9 18.6 19.1 19.2 18.9 18.5 17.9 17.1 16.7 16.6 16.1 15.6 15.1 14.5 13.6 13.4 13.4 13.5 13.4 13.1 12.7 12.3 11.2 10.5 10.3 10.3 10.3 10.1 9.8 9.5 9.0 8.9 9.1 8.8 10.2 11.7 11.7 11.5 11.3 11.1 11.1 11.1 11.2 11.6 12.2 12.7 13.0 12.8 12.4 12.4 12.5 12.6 12.4 12.3 12.6 12.8 12.4 12.1 12.2 12.2 12.3 12.6 12.7
17.1 17.0 17.1 16.9 16.7 16.6 16.7 16.8 16.9 17.1 18.0 18.6 18.8 19.2 19.3 19.5 19.8 20.3 20.4 20.5 21.1 20.3 20.1 19.8 20.0 19.9 19.7 19.5 18.9 18.1 17.4 16.8 16.1 15.2 13.9 13.8 13.3 13.1 13.2 13.6 13.7 13.6 13.2 12.9 12.7 12.5 12.1 11.7 11.1 10.2 9.9 9.9 9.8 9.7 9.8 9.7 9.5 9.3 11.6 11.6 11.6 11.8 12.1 12.3 12.5 12.6 13.1 13.7 14.0 14.2 14.3 14.2 13.5 13.2 13.2 12.9 12.7 12.7 12.8 13.0 13.3 13.3 13.4 13.9 14.1
17.5 17.3 17.0 16.6 16.9 17.1 17.3 17.2 17.1 17.7 18.0 18.3 19.0 19.4 19.1 19.8 20.2 20.6 21.0 21.2 20.9 20.4 20.4 20.7 20.6 20.2 20.3 20.2 19.9 18.9 17.9 17.2 16.0 14.1 13.1 12.4 12.8 13.7 13.8 13.7 13.7 13.9 13.8 13.6 13.2 12.8 13.1 13.0 12.5 10.8 10.2 10.1 10.1 9.9 10.0 9.9 9.9 10.0 10.4 11.1 11.3 12.1 12.5 12.9 13.4 13.6 13.8 14.1 14.1 14.6 14.6 14.7 14.3 13.8 13.1 12.5 13.5 13.1 13.6 13.6 14.0 14.5 15.0 15.6 15.6
18.0 17.6 17.1 17.2 17.5 17.7 17.8 17.8 18.0 18.1 18.2 18.3 18.1 18.8 20.0 20.3 20.6 21.0 21.3 21.2 20.6 20.8 21.1 21.1 21.0 21.0 20.5 20.4 20.3 19.6 18.6 16.9 15.0 14.1 13.4 12.8 12.5 14.1 15.0 14.7 14.2 14.2 14.2 14.1 13.9 13.8 13.5 13.1 13.0 12.6 12.2 12.0 11.7 11.2 10.5 10.2 10.3 10.3 10.5 10.7 10.9 10.4 9.5 11.4 13.0 14.0 14.1 14.1 14.5 14.5 14.2 14.6 14.8 14.2 13.9 13.3 14.3 14.3 14.3 14.4 14.6 15.1 15.6 15.8 15.5
18.4 17.9 17.2 17.5 18.1 18.2 18.5 18.6 18.4 18.4 18.6 18.6 18.3 18.7 20.4 20.8 21.2 21.6 21.9 21.7 21.6 21.4 21.3 21.1 21.5 21.1 21.1 21.2 20.8 19.8 19.3 17.0 15.3 14.5 13.8 13.1 12.3 13.8 16.0 15.5 15.8 15.8 15.4 15.1 15.1 15.0 14.6 14.2 14.1 13.9 12.9 11.0 11.9 12.4 12.0 11.7 10.9 10.7 11.1 11.2 11.4 10.9 9.0 8.4 8.9 12.1 12.6 13.7 14.1 14.6 14.4 14.5 15.5 15.0 13.4 13.5 13.4 15.0 15.3 15.5 15.4 15.1 15.1 15.3 15.3
18.3 17.9 17.8 17.8 18.0 18.0 18.5 19.1 19.2 19.1 18.9 18.9 19.4 20.5 21.0 21.4 21.8 22.3 22.5 22.1 22.0 21.8 21.8 21.8 21.4 21.7 21.6 21.4 21.0 20.3 20.0 18.2 15.8 14.7 14.1 13.4 12.7 14.0 17.5 16.6 16.4 16.7 16.6 16.4 16.1 15.9 15.7 15.4 15.0 15.1 14.6 13.9 14.0 13.3 12.9 12.7 12.3 12.1 12.4 12.5 12.7 12.4 11.5 10.7 10.7 11.7 12.2 13.0 13.5 14.6 14.1 13.9 14.5 13.9 13.6 12.8 14.1 15.3 15.5 15.9 15.6 16.0 15.9 15.8 15.0
18.4 18.0 17.7 17.2 17.3 18.1 18.8 19.3 19.0 18.6 18.7 19.4 20.3 21.1 21.3 21.5 21.9 22.7 23.1 22.6 22.6 22.6 22.5 22.6 22.2 21.8 21.7 21.3 21.2 20.8 20.1 17.2 15.8 15.1 14.4 13.7 13.0 14.3 18.1 17.6 17.6 17.3 17.2 17.0 16.8 16.8 16.6 16.0 15.6 15.7 15.7 15.9 15.2 14.5 14.4 14.0 13.4 13.0 12.8 13.1 13.2 13.2 13.0 12.7 12.6 12.6 12.9 13.2 13.5 13.6 14.0 13.8 13.6 13.6 13.7 12.7 13.3 13.7 13.9 14.9 15.3 15.6 16.2 16.5 16.7
18.7 18.2 17.9 17.1 17.6 18.5 19.4 19.4 19.3 19.2 19.4 20.8 21.3 21.5 22.0 22.1 22.7 23.1 23.2 23.1 23.0 22.8 22.7 22.7 22.7 22.5 21.6 21.4 21.4 21.5 20.4 17.2 16.2 15.6 14.8 14.2 13.6 18.1 19.0 18.8 18.5 18.2 18.1 17.7 17.5 17.2 17.1 16.6 16.3 16.6 16.6 16.6 14.4 13.3 14.1 15.0 14.5 14.5 14.4 14.3 14.1 13.6 13.5 12.2 10.7 10.4 12.2 12.6 12.8 13.6 13.9 12.9 12.6 13.0 13.1 13.5 14.1 14.1 14.0 14.1 16.0 16.6 17.0 17.6 17.9
19.2 18.8 18.5 18.0 18.0 18.5 19.4 20.5 20.6 20.5 20.4 21.1 21.9 22.1 22.0 22.5 23.2 23.9 24.2 23.9 23.4 23.4 23.6 23.3 22.7 22.4 22.0 21.7 21.8 21.5 20.8 18.7 16.9 16.1 15.6 14.8 15.5 20.1 18.8 18.7 19.0 19.5 19.0 18.1 18.1 17.7 17.5 17.6 17.5 17.5 17.4 17.0 14.3 13.2 13.0 14.3 16.0 15.7 15.7 15.8 15.4 15.3 15.6 14.0 10.5 8.9 9.2 9.8 10.5 10.6 10.9 10.3 10.2 10.1 10.2 11.4 14.1 14.8 16.1 17.0 17.6 17.2 18.0 18.7 19.1
19.2 19.1 18.8 18.1 18.2 19.0 19.5 19.9 20.0 20.1 21.0 21.3 21.1 20.9 21.6 22.8 23.8 24.5 24.8 24.4 23.9 23.8 23.8 23.7 23.2 22.6 22.2 21.8 21.2 21.3 20.8 19.5 17.8 17.1 16.4 15.7 15.7 19.8 20.0 19.3 20.3 19.8 19.5 18.8 18.7 18.0 16.7 16.4 17.2 18.3 17.7 16.6 14.1 13.7 13.0 14.5 17.1 17.0 16.7 16.5 16.6 16.8 16.2 15.3 15.0 14.0 10.4 10.2 9.8 9.7 10.0 10.2 9.9 9.7 9.4 10.2 11.7 13.6 16.4 17.6 17.8 17.5 18.6 18.9 19.7
19.6 19.2 18.7 18.4 19.0 19.3 19.3 19.8 20.6 21.0 20.9 21.1 21.5 21.8 22.1 23.1 23.9 25.0 25.1 25.5 24.5 24.1 23.7 23.9 23.2 22.0 21.3 21.4 20.5 21.1 21.4 21.0 18.9 18.0 17.2 16.6 16.6 20.1 20.9 21.3 21.2 21.1 21.1 20.9 20.2 20.1 18.5 17.3 16.4 16.6 16.6 15.5 14.0 13.8 13.9 15.5 17.7 17.8 17.6 17.1 17.2 17.4 16.9 16.5 16.2 16.6 16.6 16.5 16.2 15.8 15.6 13.9 13.6 13.4 13.0 11.2 12.1 13.6 14.7 16.5 16.7 17.7 18.8 19.3 19.6
18.9 18.8 19.0 19.2 19.4 19.7 20.0 20.6 20.6 20.9 21.6 22.1 22.2 22.6 23.2 24.5 25.0 25.2 25.3 25.2 24.8 24.6 24.2 23.8 23.6 23.0 22.1 22.0 22.0 21.8 22.0 22.0 21.3 18.5 17.8 17.1 16.4 18.6 21.5 21.8 21.7 21.7 21.6 21.5 21.6 21.8 21.7 21.0 17.7 15.7 15.2 15.0 14.5 14.1 14.2 14.5 17.1 17.9 18.4 18.3 17.9 18.3 17.2 17.9 17.5 16.9 17.1 17.3 17.5 16.9 16.8 16.2 15.9 15.7 15.5 15.1 14.7 14.0 14.9 15.4 16.5 17.4 18.6 19.1 19.6
19.5 19.7 19.5 19.6 19.7 20.1 20.6 21.2 21.9 21.7 21.5 22.0 22.3 23.1 24.6 25.1 25.7 26.2 26.2 25.7 25.3 25.2 25.1 24.3 23.6 23.3 22.7 22.4 22.4 22.3 22.1 22.6 22.6 18.9 18.2 17.7 16.9 17.4 20.2 21.6 22.2 22.2 22.2 22.0 21.9 22.1 22.2 21.9 21.8 18.1 16.4 15.7 15.4 15.0 14.8 14.8 15.6 18.1 19.6 19.7 19.4 17.2 16.3 18.4 16.9 16.5 18.7 18.3 18.2 18.1 18.1 18.1 17.8 17.6 17.4 17.1 16.9 15.7 15.4 15.6 16.0 16.0 17.9 18.9 19.4
20.5 20.6 20.4 20.2 20.4 20.6 21.6 21.9 21.3 21.7 22.0 22.4 23.6 24.5 25.9 26.1 26.4 26.7 26.7 26.4 26.4 26.3 25.8 25.0 24.5 24.2 23.6 23.1 23.1 22.9 22.2 21.3 23.3 21.1 18.8 18.2 17.6 16.4 20.1 21.2 21.3 22.5 22.7 22.6 22.4 22.5 22.6 22.4 22.3 19.3 17.1 16.2 16.1 15.5 15.1 15.1 15.3 17.6 17.0 15.1 14.1 14.2 17.5 18.8 19.5 19.5 19.5 19.6 19.2 19.4 19.4 19.6 19.9 19.5 19.0 18.5 17.9 17.0 16.7 16.6 16.4 16.7 17.0 17.0 18.5
21.0 20.9 21.0 21.2 21.3 21.6 21.9 22.1 22.5 22.5 22.9 23.3 24.7 26.2 26.3 26.6 26.9 26.9 26.5 26.4 26.6 26.6 26.1 25.2 24.7 24.5 24.2 23.6 23.3 23.2 22.8 22.9 20.9 22.3 20.5 19.1 17.9 17.1 16.8 18.3 17.0 20.9 23.1 23.1 23.1 23.1 23.0 22.9 20.8 17.7 16.7 16.4 16.1 15.7 15.5 15.2 15.9 16.6 14.4 14.4 14.5 14.9 17.0 19.3 19.2 20.3 20.3 20.3 20.4 20.5 20.6 20.6 20.6 20.3 19.9 20.4 20.1 18.5 18.6 18.4 18.1 17.7 18.2 18.2 18.4
21.4 21.7 22.0 22.2 22.4 22.5 22.7 23.2 23.6 23.8 24.1 24.6 25.8 26.6 26.7 27.0 27.1 26.8 26.1 26.3 26.7 26.8 26.3 25.8 25.5 25.2 24.9 24.2 23.4 23.1 23.8 24.7 22.8 20.8 21.5 19.9 18.3 17.5 17.0 16.9 17.2 21.1 22.4 23.7 23.8 23.7 23.5 23.4 21.2 16.6 16.1 15.9 15.6 15.4 16.0 16.9 17.7 16.5 16.8 17.4 18.0 18.1 19.2 18.9 19.3 19.6 20.1 20.9 21.0 21.0 21.0 21.0 21.0 21.1 21.1 21.0 21.0 20.4 21.0 20.6 20.7 20.2 19.9 20.1 19.7
22.8 23.4 23.6 23.6 23.7 23.6 24.1 24.3 24.3 24.4 24.4 25.1 26.2 26.3 26.6 26.5 26.9 26.6 26.3 26.2 26.3 26.6 26.1 25.6 25.6 25.4 25.2 25.0 24.3 24.4 24.9 24.4 24.6 22.5 20.6 20.6 18.9 17.6 17.3 17.1 18.6 20.1 22.9 24.2 24.1 23.9 19.8 17.5 17.3 17.1 17.2 17.6 18.1 19.1 19.8 19.2 18.2 18.8 19.1 19.5 20.1 21.5 21.4 21.5 21.2 20.6 20.8 21.2 21.6 21.7 21.7 21.7 21.6 21.6 21.6 21.7 21.4 21.0 21.2 21.7 21.9 21.9 21.7 21.6 21.5
24.4 24.6 24.5 24.3 24.4 24.5 25.1 24.8 25.0 25.1 25.1 25.6 26.3 27.1 26.9 26.6 26.8 26.7 26.7 26.8 26.7 26.8 26.7 26.1 25.9 25.6 25.7 25.1 24.8 24.9 24.5 24.6 24.6 24.6 22.6 21.1 20.7 19.1 18.3 19.4 19.5 19.7 20.7 21.9 19.5 18.4 18.0 18.4 18.9 19.9 20.4 20.8 23.5 23.7 23.7 23.3 20.4 20.0 20.5 22.6 23.0 22.8 22.6 22.5 22.3 22.3 22.4 22.5 22.6 22.7 22.6 22.4 22.4 22.4 22.2 22.1 22.6 22.7 22.7 22.8 22.9 23.0 22.9 22.9 23.1
25.4 25.5 25.8 25.5 25.1 25.0 25.3 25.3 25.3 25.1 25.2 26.0 26.7 26.9 26.7 26.6 26.4 26.5 26.6 27.0 27.0 26.9 26.6 26.6 26.5 26.2 26.1 25.7 25.1 25.3 24.8 24.8 25.2 25.6 25.5 24.9 24.5 23.3 22.5 22.3 20.0 20.4 23.6 24.0 22.6 23.7 21.8 21.8 22.4 20.8 21.1 20.2 21.1 20.7 21.7 22.4 24.3 24.0 23.8 23.7 23.7 23.6 23.5 23.3 23.1 22.9 23.0 23.1 23.1 23.3 23.4 23.3 23.3 23.1 23.4 23.3 23.5 23.7 23.6 23.5 23.5 23.9 24.0 23.8 23.9
26.5 26.9 26.9 26.5 26.1 25.6 25.4 24.8 25.1 25.6 25.8 26.4 27.0 27.3 27.0 26.7 26.8 26.8 26.9 26.8 27.3 27.3 27.0 27.0 27.0 26.7 26.6 25.9 25.5 25.4 25.5 25.6 25.5 25.1 25.7 25.7 24.6 24.0 24.5 24.3 25.0 25.8 25.9 25.4 24.8 24.5 25.2 23.6 25.4 26.2 26.2 26.1 26.0 25.8 25.7 25.6 25.4 25.1 24.9 24.8 24.7 24.4 24.3 23.4 24.0 23.8 23.8 23.8 23.8 23.9 24.1 24.1 24.1 24.1 24.1 24.2 24.4 24.6 24.6 24.3 24.2 24.5 24.8 24.7 24.9
26.8 27.6 27.4 26.9 26.6 25.3 25.1 25.3 26.1 26.3 26.6 26.8 26.8 26.6 27.0 27.3 27.1 26.6 25.6 25.7 26.3 27.1 27.4 27.0 26.3 26.1 26.4 26.1 25.8 25.9 25.9 25.7 25.4 22.4 23.0 21.6 23.1 24.7 24.5 24.8 25.9 25.9 23.6 22.6 24.7 26.0 26.4 26.5 26.6 26.7 26.6 26.4 26.3 26.2 26.3 26.3 26.2 26.1 25.9 25.8 25.7 25.5 25.3 25.1 24.9 24.8 24.8 24.8 24.8 24.8 24.8 24.7 24.8 24.8 24.6 24.8 25.4 25.7 25.5 25.3 25.2 25.4 25.4 25.5 26.0
27.7 27.8 27.4 27.1 26.4 25.9 25.8 26.2 26.7 26.6 27.0 27.4 27.1 26.6 25.0 23.7 24.4 25.4 25.8 23.8 23.2 22.9 23.0 25.2 25.1 25.3 25.6 25.0 24.6 26.1 26.0 25.1 20.5 19.1 19.1 19.1 19.6 19.8 20.4 20.5 20.8 21.9 20.9 20.9 22.5 26.6 26.8 26.9 26.9 26.9 26.8 26.7 26.5 26.4 26.4 26.6 26.7 26.8 26.8 26.7 26.5 26.3 26.3 26.1 25.9 25.7 25.6 25.6 25.7 25.7 25.6 25.5 25.6 25.6 25.5 25.7 26.2 26.6 26.5 26.3 26.2 26.3 26.4 26.5 27.0
27.6 27.6 27.2 27.2 26.5 26.1 26.3 26.9 27.1 27.4 27.3 27.3 27.4 27.5 27.5 26.2 23.7 23.2 23.6 23.6 22.9 21.9 21.4 20.8 20.2 20.8 22.7 24.2 22.8 20.7 20.9 20.6 20.4 20.0 20.0 19.7 20.0 20.0 20.1 20.4 20.7 20.4 20.2 22.7 25.1 26.8 27.0 27.1 27.1 27.1 26.9 26.8 26.8 26.7 26.6 26.8 26.9 27.1 27.4 27.5 27.3 27.1 27.1 27.1 27.1 26.8 26.5 26.3 26.4 26.5 26.6 26.5 26.4 26.6 26.6 26.8 27.2 27.4 27.5 27.5 27.4 27.4 27.5 27.7 28.0
27.9 27.8 27.6 27.3 26.7 26.5 26.9 27.3 27.6 27.8 27.6 27.5 27.7 28.1 28.3 28.6 27.7 25.0 23.9 23.9 23.3 22.2 20.9 20.3 20.0 20.0 20.4 21.5 23.3 24.4 21.8 21.3 21.3 20.7 20.1 20.3 22.0 21.8 21.7 20.6 20.0 19.8 20.4 20.7 26.7 26.9 27.1 27.1 27.2 27.2 27.0 26.9 27.0 27.0 27.0 27.1 27.3 27.4 27.6 27.8 27.9 27.9 27.8 27.8 27.8 27.7 27.4 27.3 27.3 27.3 27.5 27.6 27.5 27.6 27.7 27.8 28.1 28.4 28.5 28.7 28.8 28.7 28.8 29.1 29.5
28.0 28.1 27.8 27.2 27.0 27.0 27.3 27.8 27.8 27.9 28.1 27.9 27.8 28.1 28.6 29.0 29.6 29.2 27.0 24.6 24.1 23.8 22.7 21.2 20.9 21.4 21.1 21.1 20.6 21.6 22.1 21.8 21.7 20.5 21.1 21.6 22.1 22.2 21.5 20.5 20.1 20.6 22.3 26.7 27.1 27.4 27.6 27.5 27.5 27.5 27.4 27.3 27.3 27.4 27.5 27.7 27.8 27.9 28.0 28.0 28.2 28.5 28.6 28.5 28.4 28.3 28.2 28.3 28.3 28.3 28.5 28.5 28.5 28.6 28.8 28.8 29.0 29.2 29.4 29.6 29.8 29.8 30.0 30.3 30.7
27.9 27.6 27.6 27.4 27.6 27.7 27.7 27.9 28.1 28.1 27.7 27.7 27.8 28.0 28.4 28.8 29.3 29.5 29.8 29.4 28.1 26.4 24.9 24.2 24.0 23.9 24.0 23.6 22.9 22.5 22.0 21.6 22.5 23.3 23.0 22.0 21.3 21.3 21.7 22.3 21.3 21.9 24.8 27.2 27.6 27.8 28.0 28.1 28.1 28.1 28.1 28.0 27.9 27.9 28.0 28.1 28.3 28.4 28.5 28.6 28.8 29.2 29.3 29.3 29.3 29.2 29.2 29.3 29.3 29.4 29.5 29.6 29.5 29.4 29.7 29.9 30.1 30.2 30.4 30.5 30.6 30.6 30.8 31.2 31.6
28.5 27.7 27.3 27.1 27.5 27.4 27.3 27.4 27.7 27.9 27.8 28.1 28.2 28.5 28.7 28.9 29.3 29.7 30.2 30.6 30.7 30.5 29.9 28.6 26.8 25.4 26.8 26.1 25.5 25.0 24.6 24.4 24.4 24.6 23.6 22.1 21.8 22.0 22.7 26.2 27.8 28.0 27.9 28.0 28.3 28.3 28.4 28.5 28.6 28.6 28.7 28.7 28.7 28.6 28.6 28.7 28.9 28.9 28.9 29.1 29.5 29.8 30.1 30.1 30.1 30.2 30.2 30.2 30.3 30.4 30.5 30.6 30.6 30.5 30.5 30.8 31.0 31.2 31.4 31.6 31.6 31.6 31.8 32.1 32.4
29.4 28.8 28.1 27.7 27.4 27.3 27.3 27.4 27.6 28.0 28.3 28.5 28.5 28.7 28.8 29.2 29.6 29.7 29.7 30.0 30.4 30.6 30.2 29.3 29.6 27.6 25.6 26.0 25.7 25.6 25.2 25.1 25.5 24.8 23.5 22.4 22.7 22.8 28.1 28.1 28.5 28.7 28.8 28.9 29.1 29.1 29.1 29.2 29.2 29.2 29.3 29.3 29.3 29.4 29.4 29.4 29.6 29.6 29.6 29.7 30.0 30.3 30.6 30.8 30.8 30.9 31.0 31.1 31.3 31.4 31.4 31.5 31.6 31.6 31.6 31.7 31.9 32.2 32.4 32.5 32.7 32.7 32.9 33.2 33.5
30.0 29.4 28.9 28.6 27.9 27.6 27.3 27.2 27.6 28.0 27.7 28.1 28.7 29.2 29.4 29.6 29.9 30.1 30.4 30.6 30.7 30.7 30.6 30.2 30.3 30.6 28.3 30.1 28.2 26.6 25.7 26.1 25.5 24.6 23.6 23.1 23.5 28.9 28.8 28.8 28.9 29.2 29.3 29.5 29.7 29.7 29.9 30.1 30.2 30.2 30.2 30.1 30.1 30.2 30.2 30.3 30.4 30.5 30.5 30.6 30.7 30.9 31.2 31.4 31.5 31.5 31.6 31.8 32.1 32.2 32.3 32.5 32.5 32.4 32.5 32.7 33.0 33.3 33.5 33.5 33.7 33.9 34.2 34.3 34.5
30.2 29.5 30.0 29.5 29.1 28.7 28.5 28.2 28.2 28.1 28.5 28.9 29.3 30.0 30.3 30.4 30.4 30.6 30.8 31.0 30.6 30.8 31.1 30.9 29.9 30.9 31.0 31.3 27.9 29.6 30.5 27.3 27.0 27.3 28.1 28.1 29.9 29.9 29.8 29.7 29.8 29.9 29.9 29.9 30.1 30.2 30.4 30.6 30.8 31.0 31.1 31.1 31.1 31.1 31.0 31.1 31.2 31.3 31.4 31.6 31.7 31.9 32.0 32.2 32.4 32.4 32.4 32.6 33.0 33.1 33.2 33.3 33.5 33.4 33.3 33.5 33.8 34.2 34.4 34.5 34.6 34.8 35.0 35.2 35.4
30.5 28.5 28.1 28.3 28.7 29.6 29.6 29.4 29.1 29.2 29.3 29.4 29.8 30.3 30.5 30.6 30.8 31.0 31.0 31.1 31.2 31.1 31.2 31.1 31.2 31.4 30.9 31.3 31.4 30.8 30.0 31.9 31.7 31.2 30.9 30.9 30.9 30.8 30.7 30.7 30.7 30.8 30.8 30.7 30.7 30.8 31.0 31.2 31.4 31.5 31.6 31.7 31.7 31.8 32.0 32.0 32.1 32.1 32.2 32.4 32.6 32.8 32.9 32.9 33.1 33.3 33.4 33.6 33.8 34.0 34.0 34.1 34.3 34.4 34.4 34.4 34.6 34.9 35.2 35.4 35.5 35.6 35.7 35.8 36.0
30.5 31.4 30.4 29.2 30.4 30.1 30.2 30.2 30.0 29.8 29.8 30.1 30.1 30.3 30.7 31.0 31.1 31.1 31.1 31.3 31.3 31.1 31.1 31.3 31.4 31.2 31.1 31.4 31.5 31.8 31.9 31.9 31.7 31.5 31.4 31.4 31.4 31.4 31.4 31.4 31.5 31.5 31.5 31.4 31.3 31.4 31.5 31.5 31.5 31.6 31.6 31.6 31.6 31.7 31.8 32.2 32.6 32.9 33.0 33.1 33.2 33.4 33.6 33.7 33.7 33.9 34.2 34.4 34.5 34.7 34.8 35.0 35.1 35.3 35.5 35.6 35.6 35.7 35.8 36.0 36.2 36.3 36.3 36.4 36.4
32.5 32.7 31.1 30.8 30.7 31.2 31.4 31.2 31.1 30.8 30.4 30.3 30.3 30.7 30.9 30.8 30.7 30.8 31.1 31.1 31.2 31.2 31.1 31.1 30.8 30.5 30.5 30.2 29.0 30.1 31.9 31.9 31.9 31.9 31.7 31.7 31.7 31.7 31.6 31.7 31.9 31.8 31.9 31.9 31.8 31.8 31.8 31.7 31.7 31.7 31.6 31.5 31.6 31.7 31.8 32.3 32.8 33.3 33.7 33.9 34.0 34.1 34.4 34.6 34.7 34.7 34.9 35.1 35.2 35.4 35.7 35.8 35.8 35.9 36.1 36.2 36.2 36.2 36.2 36.4 36.5 36.5 36.6 36.6 36.5
33.6 33.7 33.4 33.0 32.1 32.4 32.5 32.3 31.8 30.9 30.7 30.7 30.9 30.9 30.8 30.7 30.8 31.0 31.2 31.4 31.5 31.4 31.3 31.3 31.0 31.4 30.4 27.6 27.6 27.8 31.2 32.2 32.3 32.2 31.9 31.8 31.8 31.8 31.9 32.1 32.0 32.0 32.0 32.1 32.0 32.1 32.1 32.0 31.9 31.9 31.8 31.9 32.0 32.1 32.3 32.6 33.0 33.4 33.9 34.3 34.6 34.8 35.0 35.3 35.4 35.5 35.7 35.9 35.9 36.1 36.2 36.1 36.1 36.3 36.4 36.3 36.4 36.5 36.6 36.7 36.7 36.6 36.7 36.8 36.6
33.8 33.7 33.7 33.1 33.2 33.2 33.2 33.0 32.3 32.0 31.6 31.6 31.5 31.5 31.0 31.1 31.3 31.2 31.3 31.5 31.6 31.9 32.1 31.9 31.7 32.1 31.7 30.2 29.4 28.8 31.5 32.3 32.6 32.8 32.5 32.3 32.1 32.0 32.2 32.4 32.3 32.2 32.2 32.2 32.3 32.4 32.4 32.3 32.3 32.2 32.1 32.2 32.2 32.4 32.6 32.7 32.9 33.2 33.6 34.0 34.3 34.7 35.1 35.4 35.7 35.8 36.0 36.2 36.2 36.3 36.4 36.5 36.4 36.3 36.3 36.4 36.6 36.7 36.7 36.9 36.9 36.8 36.7 36.7 36.7
33.9 33.6 33.5 33.3 33.4 33.4 33.2 33.1 32.7 32.1 32.1 31.8 31.6 31.5 31.6 31.9 31.9 31.9 31.8 31.9 32.0 32.1 32.1 31.9 31.9 32.0 32.1 32.3 32.2 32.3 32.3 32.4 32.7 32.9 33.1 32.8 32.5 32.3 32.5 32.6 32.5 32.5 32.4 32.4 32.6 32.6 32.6 32.6 32.5 32.4 32.3 32.3 32.3 32.5 32.7 32.8 33.0 33.4 33.8 34.0 34.3 34.7 35.0 35.5 35.9 36.2 36.3 36.4 36.4 36.5 36.7 36.8 36.6 36.5 36.5 36.6 36.8 36.9 36.9 36.9 37.0 36.9 36.9 37.0 37.0
34.4 34.2 34.2 34.6 34.5 34.7 34.1 33.0 32.4 32.3 32.3 32.9 34.2 33.6 33.1 33.0 32.6 32.3 32.2 32.3 32.3 32.3 32.3 32.3 32.3 32.4 32.6 33.1 33.3 33.1 32.8 32.7 32.7 32.8 33.0 33.3 33.0 32.8 32.8 32.7 32.7 32.7 32.7 32.8 32.9 32.8 32.8 32.8 32.7 32.6 32.4 32.5 32.6 32.7 32.9 33.1 33.5 34.1 34.4 34.6 35.0 35.4 35.8 36.3 36.5 36.7 36.7 36.7 36.6 36.7 37.0 37.0 36.9 37.0 37.0 37.1 37.0 36.9 36.8 36.9 37.0 37.0 36.9 36.8 36.7
34.7 34.7 34.8 35.2 35.1 34.5 33.7 33.1 32.8 33.3 33.6 34.0 34.1 34.3 34.0 33.8 33.4 33.1 32.8 32.7 32.6 32.5 32.4 32.5 32.6 32.8 32.9 32.7 33.4 33.5 33.4 33.2 33.1 33.2 33.3 33.5 33.7 33.5 33.4 33.3 33.2 33.2 33.2 33.2 33.3 33.2 33.2 33.1 33.1 32.9 32.9 32.9 32.9 33.2 33.4 33.7 34.2 34.8 35.2 35.5 35.9 36.3 36.5 36.7 36.9 37.1 37.3 37.2 37.0 37.0 37.1 37.1 37.2 37.3 37.3 37.3 37.2 36.8 36.8 37.1 37.0 36.8 36.7 36.6 36.5
35.4 35.4 35.3 35.3 35.1 34.0 33.2 33.2 33.8 33.9 34.1 34.1 34.3 34.6 34.5 34.3 33.8 33.5 33.3 33.0 33.0 33.3 33.4 33.1 33.2 33.2 33.0 32.9 33.3 33.7 33.8 33.5 33.4 33.4 33.5 33.8 34.2 34.0 33.9 33.7 33.7 33.6 33.6 33.7 33.7 33.6 33.5 33.4 33.3 33.3 33.3 33.3 33.4 33.7 34.0 34.4 35.0 35.5 35.4 35.1 35.2 35.8 36.3 36.0 35.7 36.1 36.9 37.4 37.2 37.2 37.2 37.1 37.2 37.3 37.2 37.3 37.2 36.9 36.8 37.0 36.8 36.6 36.7 36.7 36.7
35.7 35.9 35.7 34.7 34.2 34.4 34.7 34.8 34.9 34.3 34.6 34.7 34.7 34.6 34.5 34.5 34.6 34.5 34.4 34.0 33.7 33.6 33.6 33.6 33.6 33.3 33.6 33.2 33.2 33.4 33.8 33.8 33.7 33.7 33.8 33.9 34.4 34.3 34.1 34.0 34.0 33.8 33.8 33.9 34.0 34.0 33.8 33.7 33.7 33.7 33.7 33.7 33.9 34.3 34.7 35.1 35.5 35.9 35.8 35.1 34.7 34.6 34.9 35.3 35.5 35.5 35.6 36.1 37.2 37.5 37.4 37.1 37.2 37.2 37.2 37.2 37.2 36.8 36.6 36.6 36.5 36.6 36.8 36.9 36.9
36.0 36.0 35.6 34.8 34.8 35.4 35.8 35.7 35.5 35.7 35.7 35.5 35.4 35.3 35.3 35.3 35.3 35.3 35.2 35.1 34.7 34.2 33.8 33.8 33.7 33.6 33.7 33.3 33.3 33.1 33.4 34.3 34.1 34.0 34.1 34.2 34.5 34.7 34.5 34.3 34.3 34.1 34.0 34.1 34.3 34.3 34.2 34.1 34.0 34.1 34.2 34.2 34.4 34.7 35.2 35.7 36.1 36.3 36.1 35.6 35.2 35.1 35.1 35.4 35.7 35.9 36.0 36.2 36.8 37.5 37.5 37.3 37.3 37.3 37.1 37.1 37.1 36.8 36.6 36.7 36.7 36.9 37.1 37.2 37.3
36.0 35.4 35.5 35.9 36.3 36.6 36.2 36.2 36.3 36.3 36.1 36.2 36.4 36.3 35.9 35.8 35.9 35.8 35.8 35.7 35.6 35.3 34.7 34.2 34.0 33.8 33.6 33.5 33.6 33.5 34.0 34.1 34.1 34.1 33.9 34.3 34.6 35.1 34.9 34.7 34.7 34.5 34.4 34.5 34.7 34.7 34.6 34.5 34.4 34.5 34.7 34.7 34.8 35.2 35.6 36.1 36.6 36.9 36.1 35.8 35.8 35.8 35.9 36.1 36.2 36.2 36.4 36.7 37.1 37.3 37.4 37.4 37.4 37.2 36.9 36.9 36.9 36.8 36.8 37.0 37.1 37.1 37.3 37.5 37.6
35.7 35.6 36.4 37.0 37.3 37.2 37.3 37.4 37.3 37.1 37.1 37.0 37.1 37.0 36.8 36.7 36.5 36.1 36.1 36.3 36.5 36.4 36.0 35.5 34.9 34.5 34.4 33.9 34.6 34.3 34.5 34.4 33.9 33.9 34.1 34.4 34.8 35.1 35.2 35.2 35.1 35.0 34.8 34.9 35.0 35.0 34.9 34.8 34.8 35.0 35.2 35.2 35.4 35.7 36.2 36.6 37.1 36.6 36.2 36.2 36.4 36.6 36.6 36.8 37.1 36.9 36.7 36.9 37.2 37.2 37.3 37.4 37.3 37.1 36.8 36.7 36.8 37.0 37.1 37.2 37.3 37.4 37.6 37.8 38.0